period_start,C,m1,H,J0,J1,J2,J3,J4,J5,JA,JB,JC,JD,JJ,JK,JN,#
2014-04-02 00:00:15,0.19,3.02,0.00,16.64,22.45,25.36,6.18,31.75,1018.27,2059.13,2423.05,2575.18,2797.00,349.33,331.45,17.82,0000 0000 0000 0000 000000
2014-04-02 00:01:15,0.11,3.02,0.00,16.65,22.46,25.40,6.24,32.04,1018.14,2059.09,2422.92,2575.06,2796.83,349.75,331.47,17.82,0000 0000 0000 0000 000000
2014-04-02 00:02:15,0.06,3.02,0.00,16.67,22.47,25.43,6.22,31.88,1018.12,2059.06,2422.46,2575.00,2796.42,351.05,332.19,17.83,0000 0000 0000 0000 000000
2014-04-02 00:03:15,0.18,3.03,0.00,16.68,22.47,25.41,6.21,31.96,1018.11,2059.03,2422.17,2574.82,2796.16,349.50,331.05,17.83,0000 0000 0000 0000 000000
2014-04-02 00:04:16,0.14,3.03,0.00,16.69,22.47,25.42,6.18,31.71,1018.08,2059.04,2422.04,2574.38,2796.05,349.75,331.43,17.84,0000 0000 0000 0000 000000
2014-04-02 00:05:16,0.19,3.03,0.00,16.69,22.47,25.37,6.13,31.79,1018.09,2059.03,2421.72,2574.14,2795.85,349.78,331.06,17.85,0000 0000 0000 0000 000000
2014-04-02 00:06:16,0.17,3.03,0.00,16.70,22.47,25.40,6.24,31.83,1018.09,2059.05,2421.33,2574.04,2795.39,350.31,331.78,17.85,0000 0000 0000 0000 000000
2014-04-02 00:07:17,0.22,3.03,0.00,16.70,22.48,25.40,6.21,31.88,1018.09,2059.03,2421.12,2573.98,2795.14,350.31,331.98,17.86,0000 0000 0000 0000 000000
2014-04-02 00:08:17,0.08,3.03,0.00,16.71,22.49,25.34,6.22,31.92,1018.09,2059.01,2421.03,2573.89,2795.05,350.23,331.72,17.86,0000 0000 0000 0000 000000
2014-04-02 00:09:17,0.06,3.03,0.00,16.71,22.49,25.40,6.24,31.75,1018.08,2059.01,2420.97,2573.46,2794.99,349.78,331.65,17.87,0000 0000 0000 0000 000000
2014-04-02 00:10:17,0.17,3.03,0.00,16.69,22.49,25.41,6.17,31.63,1018.09,2059.01,2420.54,2573.18,2794.62,350.15,331.64,17.88,0000 0000 0000 0000 000000
2014-04-02 00:11:18,0.24,3.03,0.00,16.69,22.49,25.42,6.07,31.54,1018.08,2059.00,2420.22,2573.06,2794.24,349.54,331.06,17.88,0000 0000 0000 0000 000000
2014-04-02 00:12:18,0.15,3.03,0.00,16.69,22.49,25.43,6.20,31.54,1018.08,2059.00,2420.07,2573.01,2794.08,349.83,331.34,17.89,0000 0000 0000 0000 000000
2014-04-02 00:13:18,0.07,3.03,0.00,16.71,22.49,25.40,6.11,31.75,1018.08,2059.00,2420.00,2572.96,2793.99,348.72,330.26,17.89,0000 0000 0000 0000 000000
2014-04-02 00:14:18,0.06,3.03,0.00,16.71,22.50,25.44,6.18,31.88,1018.08,2059.01,2419.82,2572.70,2793.90,349.62,331.11,17.90,0000 0000 0000 0000 000000
2014-04-02 00:15:19,0.16,3.04,0.00,16.72,22.51,25.40,6.07,31.88,1018.07,2059.00,2419.51,2572.32,2793.48,348.58,329.90,17.90,0000 0000 0000 0000 000000
2014-04-02 00:16:19,0.24,3.04,0.00,16.72,22.52,25.37,6.08,31.79,1018.08,2059.00,2419.16,2572.11,2793.17,348.22,330.12,17.91,0000 0000 0000 0000 000000
2014-04-02 00:17:19,0.17,3.04,0.00,16.72,22.52,25.40,6.24,32.00,1018.06,2059.00,2418.96,2572.01,2793.05,350.27,331.77,17.92,0000 0000 0000 0000 000000
2014-04-02 00:18:19,0.09,3.04,0.00,16.73,22.52,25.41,6.17,32.08,1018.05,2059.00,2418.59,2571.88,2792.87,349.17,330.66,17.92,0000 0000 0000 0000 000000
2014-04-02 00:19:20,0.15,3.04,0.00,16.74,22.52,25.43,6.27,31.67,1018.05,2059.00,2418.26,2571.50,2792.47,350.86,332.24,17.93,0000 0000 0000 0000 000000
2014-04-02 00:20:20,0.28,3.04,0.00,16.74,22.52,25.45,6.34,31.67,1018.04,2059.00,2418.09,2571.22,2792.20,351.11,332.48,17.93,0000 0000 0000 0000 000000
2014-04-02 00:21:20,0.17,3.04,0.00,16.73,22.53,25.45,6.29,31.88,1017.96,2059.00,2417.99,2571.08,2792.07,350.32,332.01,17.94,0000 0000 0000 0000 000000
2014-04-02 00:22:20,0.08,3.04,0.00,16.72,22.54,25.45,6.23,31.63,1017.90,2059.00,2417.85,2571.02,2792.00,351.50,332.94,17.95,0000 0000 0000 0000 000000
2014-04-02 00:23:21,0.06,3.04,0.00,16.71,22.54,25.49,6.07,31.83,1017.83,2059.00,2417.40,2570.96,2791.85,349.24,330.67,17.95,0000 0000 0000 0000 000000
2014-04-02 00:24:21,0.14,3.04,0.00,16.72,22.54,25.50,6.42,31.83,1017.79,2059.00,2417.14,2570.71,2791.42,351.22,332.53,17.96,0000 0000 0000 0000 000000
2014-04-02 00:25:21,0.22,3.05,0.00,16.72,22.54,25.48,6.26,31.83,1017.66,2059.00,2417.03,2570.30,2791.17,350.51,331.82,17.96,0000 0000 0000 0000 000000
2014-04-02 00:26:22,0.19,3.05,0.00,16.72,22.54,25.45,6.23,31.83,1017.63,2059.00,2416.80,2570.11,2791.06,349.60,330.94,17.97,0000 0000 0000 0000 000000
2014-04-02 00:27:22,0.12,3.05,0.00,16.72,22.54,25.44,6.17,31.58,1017.62,2059.00,2416.34,2570.04,2790.98,349.30,330.20,17.97,0000 0000 0000 0000 000000
2014-04-02 00:28:22,0.16,3.05,0.00,16.72,22.55,25.49,6.18,31.79,1017.61,2059.00,2416.12,2569.99,2790.62,349.59,331.19,17.98,0000 0000 0000 0000 000000
2014-04-02 00:29:22,0.13,3.05,0.00,16.72,22.55,25.54,6.21,31.79,1017.63,2059.00,2416.03,2569.76,2790.25,351.06,332.34,17.99,0000 0000 0000 0000 000000
2014-04-02 00:30:22,0.15,3.05,0.00,16.73,22.56,25.48,6.27,31.88,1017.61,2059.00,2415.81,2569.30,2790.09,349.33,330.68,17.99,0000 0000 0000 0000 000000
2014-04-02 00:31:23,0.21,3.05,0.00,16.73,22.57,25.49,6.02,31.71,1017.60,2058.99,2415.37,2569.11,2790.02,349.44,330.76,18.00,0000 0000 0000 0000 000000
2014-04-02 00:32:23,0.16,3.05,0.00,16.74,22.57,25.49,6.21,32.00,1017.59,2058.99,2415.13,2569.04,2789.63,349.62,330.93,18.00,0000 0000 0000 0000 000000
2014-04-02 00:33:23,0.13,3.05,0.00,16.74,22.57,25.51,6.21,31.92,1017.59,2058.98,2415.03,2568.95,2789.25,350.65,331.89,18.01,0000 0000 0000 0000 000000
2014-04-02 00:34:24,0.14,3.05,0.00,16.74,22.57,25.49,6.34,32.04,1017.59,2058.98,2414.75,2568.55,2789.08,349.46,330.76,18.02,0000 0000 0000 0000 000000
2014-04-02 00:35:24,0.22,3.06,0.00,16.74,22.57,25.52,6.17,32.04,1017.59,2058.99,2414.36,2568.21,2789.01,348.57,329.93,18.02,0000 0000 0000 0000 000000
2014-04-02 00:36:24,0.19,3.06,0.00,16.73,22.58,25.49,6.17,31.71,1017.59,2058.99,2414.14,2568.07,2788.73,350.26,331.53,18.03,0000 0000 0000 0000 000000
2014-04-02 00:37:24,0.13,3.06,0.00,16.74,22.59,25.50,6.27,31.83,1017.59,2058.98,2414.03,2568.03,2788.32,349.62,330.92,18.03,0000 0000 0000 0000 000000
2014-04-02 00:38:25,0.10,3.06,0.00,16.75,22.59,25.48,6.29,31.63,1017.59,2058.99,2413.94,2567.99,2788.11,350.76,331.98,18.04,0000 0000 0000 0000 000000
2014-04-02 00:39:25,0.10,3.06,0.00,16.74,22.59,25.47,6.13,32.04,1017.58,2058.98,2413.52,2567.75,2788.04,348.76,330.10,18.05,0000 0000 0000 0000 000000
2014-04-02 00:40:25,0.18,3.06,0.00,16.74,22.59,25.48,6.23,31.63,1017.58,2058.98,2413.18,2567.35,2787.81,350.71,332.21,18.05,0000 0000 0000 0000 000000
2014-04-02 00:41:25,0.23,3.06,0.00,16.76,22.59,25.53,6.17,31.58,1017.56,2058.98,2413.05,2567.13,2787.36,350.19,331.25,18.06,0000 0000 0000 0000 000000
2014-04-02 00:42:26,0.16,3.06,0.00,16.77,22.59,25.53,6.22,31.79,1017.56,2058.98,2412.93,2567.04,2787.13,349.40,330.96,18.06,0000 0000 0000 0000 000000
2014-04-02 00:43:26,0.11,3.06,0.00,16.78,22.60,25.50,6.00,31.50,1017.56,2058.98,2412.49,2566.98,2787.04,350.16,331.38,18.07,0000 0000 0000 0000 000000
2014-04-02 00:44:26,0.13,3.06,0.00,16.79,22.60,25.47,6.06,31.71,1017.58,2058.95,2412.18,2566.71,2786.91,349.63,330.67,18.07,0000 0000 0000 0000 000000
2014-04-02 00:45:27,0.17,3.06,0.00,16.78,22.61,25.52,6.18,31.63,1017.54,2058.95,2412.05,2566.28,2786.42,351.25,332.56,18.08,0000 0000 0000 0000 000000
2014-04-02 00:46:27,0.23,3.07,0.00,16.77,22.62,25.52,6.23,31.79,1017.46,2058.95,2411.83,2566.11,2786.16,349.63,330.90,18.09,0000 0000 0000 0000 000000
2014-04-02 00:47:27,0.15,3.07,0.00,16.77,22.62,25.55,6.24,31.46,1017.42,2058.94,2411.37,2566.04,2786.05,350.36,331.29,18.09,0000 0000 0000 0000 000000
2014-04-02 00:48:27,0.12,3.07,0.00,16.77,22.62,25.54,6.25,31.50,1017.41,2058.94,2411.13,2565.94,2785.97,351.31,332.43,18.10,0000 0000 0000 0000 000000
2014-04-02 00:49:28,0.09,3.07,0.00,16.77,22.62,25.55,6.14,32.00,1017.40,2058.93,2411.03,2565.72,2785.69,348.68,329.93,18.10,0000 0000 0000 0000 000000
2014-04-02 00:50:28,0.14,3.07,0.00,16.78,22.62,25.53,6.24,31.67,1017.25,2058.86,2410.83,2565.36,2785.33,350.69,331.78,18.11,0000 0000 0000 0000 000000
2014-04-02 00:51:28,0.15,3.07,0.00,16.78,22.62,25.51,6.17,31.92,1017.17,2058.84,2410.36,2565.13,2785.11,350.19,331.27,18.12,0000 0000 0000 0000 000000
2014-04-02 00:52:29,0.16,3.07,0.00,16.78,22.63,25.54,6.08,31.79,1017.16,2058.82,2410.13,2565.04,2785.04,349.10,330.24,18.12,0000 0000 0000 0000 000000
2014-04-02 00:53:29,0.13,3.07,0.00,16.79,22.64,25.55,6.21,31.83,1017.12,2058.80,2410.04,2565.00,2784.97,351.33,331.96,18.13,0000 0000 0000 0000 000000
2014-04-02 00:54:29,0.02,3.07,0.00,16.79,22.64,25.54,6.19,31.71,1017.18,2058.77,2409.98,2564.84,2784.60,350.40,331.67,18.13,0000 0000 0000 0000 000000
2014-04-02 00:55:30,0.13,3.07,0.00,16.81,22.64,25.52,6.17,31.58,1017.19,2058.75,2409.59,2564.42,2784.24,350.52,331.56,18.14,0000 0000 0000 0000 000000
2014-04-02 00:56:30,0.23,3.07,0.00,16.82,22.64,25.55,6.12,31.71,1017.17,2058.82,2409.26,2564.16,2784.08,349.90,330.96,18.14,0000 0000 0000 0000 000000
2014-04-02 00:57:30,0.24,3.07,0.00,16.82,22.64,25.58,6.13,31.63,1017.18,2058.76,2409.09,2564.05,2784.02,350.04,330.88,18.15,0000 0000 0000 0000 000000
2014-04-02 00:58:30,0.02,3.08,0.00,16.82,22.65,25.60,6.17,31.79,1017.15,2058.53,2408.95,2563.99,2783.69,350.66,331.58,18.16,0000 0000 0000 0000 000000
2014-04-02 00:59:31,-0.09,3.07,0.00,16.82,22.65,25.54,5.98,31.92,1017.12,2058.34,2408.57,2563.69,2783.29,349.61,330.67,18.16,0000 0000 0000 0000 000000
2014-04-02 01:00:31,0.09,3.07,0.00,16.82,22.66,25.53,6.19,31.83,1017.12,2058.28,2408.22,2563.27,2783.08,351.05,332.03,18.17,0000 0000 0000 0000 000000
2014-04-02 01:01:31,0.17,3.08,0.00,16.84,22.67,25.59,6.14,31.50,1017.11,2058.31,2408.07,2563.09,2782.98,350.19,331.19,18.17,0000 0000 0000 0000 000000
2014-04-02 01:02:31,0.15,3.08,0.00,16.84,22.67,25.55,6.17,31.83,1017.11,2058.27,2407.78,2563.03,2782.55,349.70,331.18,18.18,0000 0000 0000 0000 000000
2014-04-02 01:03:32,0.09,3.08,0.00,16.84,22.67,25.57,6.16,31.88,1017.11,2058.18,2407.39,2562.97,2782.22,349.33,330.34,18.19,0000 0000 0000 0000 000000
2014-04-02 01:04:32,0.10,3.08,0.00,16.87,22.67,25.59,6.13,31.75,1017.09,2058.20,2407.16,2562.75,2782.08,350.06,331.16,18.19,0000 0000 0000 0000 000000
2014-04-02 01:05:32,0.13,3.08,0.00,16.86,22.67,25.60,6.35,31.75,1017.10,2058.17,2407.06,2562.44,2782.03,351.42,332.16,18.20,0000 0000 0000 0000 000000
2014-04-02 01:06:32,0.11,3.08,0.00,16.87,22.67,25.55,6.17,31.58,1017.06,2058.14,2406.99,2562.17,2781.94,349.64,330.62,18.20,0000 0000 0000 0000 000000
2014-04-02 01:07:33,0.09,3.08,0.00,16.87,22.68,25.56,6.13,31.71,1017.01,2058.22,2406.72,2562.06,2781.53,349.45,330.43,18.21,0000 0000 0000 0000 000000
2014-04-02 01:08:33,0.21,3.08,0.00,16.88,22.69,25.56,6.27,31.88,1017.00,2058.20,2406.41,2562.01,2781.20,349.87,330.81,18.22,0000 0000 0000 0000 000000
2014-04-02 01:09:34,0.14,3.08,0.00,16.88,22.69,25.55,6.22,31.79,1017.03,2058.14,2406.16,2561.81,2781.07,349.78,330.72,18.22,0000 0000 0000 0000 000000
2014-04-02 01:10:34,0.09,3.08,0.00,16.87,22.69,25.59,6.15,31.92,1016.91,2058.13,2406.00,2561.43,2780.98,349.45,330.39,18.23,0000 0000 0000 0000 000000
2014-04-02 01:11:34,0.17,3.08,0.00,16.88,22.69,25.60,6.17,32.04,1016.73,2058.12,2405.78,2561.16,2780.70,350.12,330.72,18.23,0000 0000 0000 0000 000000
2014-04-02 01:12:35,0.18,3.08,0.00,16.88,22.69,25.61,6.13,31.75,1016.72,2058.09,2405.33,2561.06,2780.29,350.13,330.96,18.24,0000 0000 0000 0000 000000
2014-04-02 01:13:35,0.17,3.09,0.00,16.88,22.70,25.65,6.12,31.88,1016.67,2058.08,2405.11,2561.01,2780.11,349.42,330.27,18.24,0000 0000 0000 0000 000000
2014-04-02 01:14:35,0.07,3.09,0.00,16.89,22.70,25.62,6.17,31.92,1016.71,2058.05,2405.03,2560.89,2780.00,349.38,330.24,18.25,0000 0000 0000 0000 000000
2014-04-02 01:15:35,0.03,3.09,0.00,16.89,22.72,25.61,6.14,32.25,1016.71,2058.03,2404.76,2560.61,2779.89,349.15,329.77,18.26,0000 0000 0000 0000 000000
2014-04-02 01:16:36,0.20,3.09,0.00,16.89,22.72,25.61,6.23,32.00,1016.71,2058.04,2404.34,2560.24,2779.46,350.51,331.30,18.26,0000 0000 0000 0000 000000
2014-04-02 01:17:36,0.27,3.09,0.00,16.89,22.72,25.64,6.28,31.79,1016.65,2058.04,2404.13,2560.09,2779.18,350.75,330.70,18.27,0000 0000 0000 0000 000000
2014-04-02 01:18:36,0.12,3.09,0.00,16.90,22.72,25.63,6.09,31.67,1016.66,2058.04,2404.03,2560.02,2779.06,349.05,329.47,18.27,0000 0000 0000 0000 000000
2014-04-02 01:19:36,0.07,3.09,0.00,16.92,22.72,25.64,6.17,32.04,1016.63,2058.02,2403.90,2559.85,2778.97,349.80,330.72,18.28,0000 0000 0000 0000 000000
2014-04-02 01:20:37,0.12,3.09,0.00,16.92,22.72,25.60,6.21,32.17,1016.65,2058.01,2403.59,2559.48,2778.57,350.24,331.17,18.29,0000 0000 0000 0000 000000
2014-04-02 01:21:37,0.22,3.09,0.00,16.92,22.73,25.62,6.08,31.92,1016.62,2058.02,2403.27,2559.20,2778.24,349.57,330.09,18.29,0000 0000 0000 0000 000000
2014-04-02 01:22:37,0.22,3.09,0.00,16.94,22.74,25.64,6.18,31.79,1016.62,2058.00,2403.10,2559.07,2778.08,349.79,329.45,18.30,0000 0000 0000 0000 000000
2014-04-02 01:23:38,0.09,3.10,0.00,16.94,22.74,25.62,6.17,31.88,1016.62,2058.00,2402.91,2559.02,2778.02,350.04,331.42,18.30,0000 0000 0000 0000 000000
2014-04-02 01:24:38,0.06,3.10,0.00,16.94,22.74,25.65,6.26,31.71,1016.62,2058.00,2402.66,2559.00,2777.85,351.33,331.99,18.31,0000 0000 0000 0000 000000
2014-04-02 01:25:38,0.13,3.10,0.00,16.95,22.74,25.67,6.18,31.75,1016.62,2058.00,2402.28,2558.97,2777.40,350.39,331.09,18.31,0000 0000 0000 0000 000000
2014-04-02 01:26:38,0.18,3.10,0.00,16.96,22.75,25.67,6.12,31.92,1016.63,2058.00,2402.10,2558.70,2777.15,348.28,329.09,18.32,0000 0000 0000 0000 000000
2014-04-02 01:27:39,0.17,3.10,0.00,16.96,22.75,25.63,6.28,31.79,1016.63,2058.00,2402.00,2558.33,2777.05,349.77,330.49,18.33,0000 0000 0000 0000 000000
2014-04-02 01:28:39,0.13,3.10,0.00,16.97,22.76,25.66,6.31,31.63,1016.65,2058.00,2401.73,2558.12,2776.99,351.08,331.74,18.33,0000 0000 0000 0000 000000
2014-04-02 01:29:39,0.14,3.10,0.00,16.97,22.77,25.64,6.18,31.58,1016.64,2058.00,2401.33,2558.04,2776.74,350.06,331.08,18.34,0000 0000 0000 0000 000000
2014-04-02 01:30:40,0.17,3.10,0.00,16.98,22.77,25.67,6.24,32.04,1016.63,2058.00,2401.11,2557.99,2776.29,349.83,330.58,18.34,0000 0000 0000 0000 000000
2014-04-02 01:31:40,0.14,3.10,0.00,17.00,22.77,25.65,6.17,32.04,1016.64,2058.00,2400.92,2557.66,2776.09,350.17,330.83,18.35,0000 0000 0000 0000 000000
2014-04-02 01:32:40,0.18,3.10,0.00,17.01,22.77,25.67,6.08,31.79,1016.63,2058.00,2400.59,2557.26,2776.00,349.34,329.91,18.36,0000 0000 0000 0000 000000
2014-04-02 01:33:41,0.19,3.10,0.00,17.02,22.77,25.65,6.18,31.54,1016.62,2058.00,2400.34,2557.09,2775.81,349.50,330.01,18.36,0000 0000 0000 0000 000000
2014-04-02 01:34:41,0.16,3.11,0.00,17.01,22.78,25.68,6.28,31.71,1016.62,2058.00,2400.13,2557.03,2775.36,349.82,330.48,18.37,0000 0000 0000 0000 000000
2014-04-02 01:35:41,0.12,3.11,0.00,17.02,22.79,25.68,6.25,31.79,1016.62,2058.00,2400.04,2556.99,2775.14,350.86,331.73,18.37,0000 0000 0000 0000 000000
2014-04-02 01:36:42,0.06,3.11,0.00,17.02,22.79,25.67,6.19,31.88,1016.62,2058.00,2399.94,2556.82,2775.04,349.35,330.03,18.38,0000 0000 0000 0000 000000
2014-04-02 01:37:42,0.11,3.11,0.00,17.02,22.79,25.71,6.11,31.71,1016.62,2058.00,2399.74,2556.42,2774.92,350.05,330.69,18.39,0000 0000 0000 0000 000000
2014-04-02 01:38:42,0.20,3.11,0.00,17.02,22.79,25.71,6.13,31.79,1016.62,2058.00,2399.32,2556.15,2774.53,349.50,330.22,18.39,0000 0000 0000 0000 000000
2014-04-02 01:39:43,0.21,3.11,0.00,17.02,22.79,25.70,6.27,31.88,1016.61,2058.00,2399.13,2556.05,2774.19,349.85,330.96,18.40,0000 0000 0000 0000 000000
2014-04-02 01:40:43,0.13,3.11,0.00,17.02,22.80,25.68,6.13,32.04,1016.61,2057.99,2398.87,2556.00,2774.07,349.18,329.87,18.40,0000 0000 0000 0000 000000
2014-04-02 01:41:43,0.09,3.11,0.00,17.01,22.80,25.68,6.13,31.92,1016.62,2057.99,2398.42,2555.88,2774.01,348.83,329.56,18.41,0000 0000 0000 0000 000000
2014-04-02 01:42:43,0.15,3.11,0.00,17.00,22.81,25.69,6.15,31.50,1016.60,2057.99,2398.18,2555.66,2773.94,350.16,330.81,18.41,0000 0000 0000 0000 000000
2014-04-02 01:43:44,0.17,3.11,0.00,17.01,22.82,25.72,6.18,31.88,1016.53,2057.99,2398.05,2555.30,2773.55,349.42,330.09,18.42,0000 0000 0000 0000 000000
2014-04-02 01:44:44,0.18,3.11,0.00,17.01,22.82,25.72,6.06,31.79,1016.50,2057.97,2397.83,2555.11,2773.23,349.03,329.70,18.43,0000 0000 0000 0000 000000
2014-04-02 01:45:44,0.14,3.11,0.00,17.01,22.82,25.70,6.24,31.71,1016.41,2057.98,2397.58,2555.03,2773.08,350.53,331.09,18.43,0000 0000 0000 0000 000000
2014-04-02 01:46:44,0.10,3.12,0.00,17.02,22.82,25.65,6.30,31.58,1016.41,2057.98,2397.29,2554.97,2773.01,350.99,331.69,18.44,0000 0000 0000 0000 000000
2014-04-02 01:47:45,0.13,3.12,0.00,17.03,22.82,25.68,6.19,31.58,1016.33,2057.98,2397.10,2554.61,2772.64,350.07,330.60,18.44,0000 0000 0000 0000 000000
2014-04-02 01:48:45,0.22,3.12,0.00,17.03,22.82,25.70,6.08,31.88,1016.26,2057.99,2397.01,2554.28,2772.25,348.49,329.09,18.45,0000 0000 0000 0000 000000
2014-04-02 01:49:45,0.18,3.12,0.00,17.04,22.83,25.71,6.16,31.83,1016.21,2057.99,2396.78,2554.10,2772.10,349.98,330.46,18.46,0000 0000 0000 0000 000000
2014-04-02 01:50:46,0.14,3.12,0.00,17.06,22.84,25.70,6.01,31.63,1016.19,2057.99,2396.42,2554.03,2772.03,350.09,330.34,18.46,0000 0000 0000 0000 000000
2014-04-02 01:51:46,0.09,3.12,0.00,17.06,22.84,25.73,6.22,31.83,1016.15,2057.98,2396.16,2553.99,2771.93,350.46,330.62,18.47,0000 0000 0000 0000 000000
2014-04-02 01:52:46,0.09,3.12,0.00,17.07,22.84,25.74,6.19,31.71,1016.14,2057.97,2396.05,2553.81,2771.50,348.89,329.64,18.47,0000 0000 0000 0000 000000
2014-04-02 01:53:46,0.18,3.12,0.00,17.07,22.84,25.72,6.17,31.79,1016.13,2057.96,2395.82,2553.37,2771.20,350.88,331.15,18.48,0000 0000 0000 0000 000000
2014-04-02 01:54:47,0.23,3.12,0.00,17.06,22.84,25.76,6.12,31.88,1016.13,2057.94,2395.39,2553.13,2771.06,348.50,329.27,18.48,0000 0000 0000 0000 000000
2014-04-02 01:55:47,0.14,3.12,0.00,17.06,22.85,25.71,6.21,31.54,1016.13,2057.94,2395.15,2553.04,2770.99,350.53,331.15,18.49,0000 0000 0000 0000 000000
2014-04-02 01:56:47,0.09,3.12,0.00,17.06,22.86,25.75,6.23,31.67,1016.13,2057.94,2395.05,2553.01,2770.71,350.24,330.04,18.50,0000 0000 0000 0000 000000
2014-04-02 01:57:48,0.08,3.12,0.00,17.07,22.86,25.74,6.13,31.79,1016.11,2057.92,2394.97,2552.81,2770.31,350.32,330.93,18.50,0000 0000 0000 0000 000000
2014-04-02 01:58:48,0.13,3.13,0.00,17.07,22.87,25.79,6.23,31.88,1016.05,2057.83,2394.55,2552.38,2770.11,349.52,330.05,18.51,0000 0000 0000 0000 000000
2014-04-02 01:59:48,0.19,3.13,0.00,17.09,22.87,25.74,6.18,31.67,1015.96,2057.80,2394.20,2552.15,2770.03,350.23,330.57,18.51,0000 0000 0000 0000 000000
2014-04-02 02:00:48,0.13,3.13,0.00,17.09,22.87,25.74,6.11,32.00,1015.88,2057.88,2394.08,2552.05,2769.93,350.03,330.35,18.52,0000 0000 0000 0000 000000
2014-04-02 02:01:49,0.14,3.13,0.00,17.09,22.87,25.73,6.12,31.75,1015.70,2057.78,2394.01,2552.01,2769.52,349.67,329.77,18.53,0000 0000 0000 0000 000000
2014-04-02 02:02:49,-0.00,3.13,0.00,17.11,22.87,25.78,6.13,31.71,1015.66,2057.70,2393.69,2551.89,2769.20,350.11,330.33,18.53,0000 0000 0000 0000 000000
2014-04-02 02:03:49,0.13,3.13,0.00,17.12,22.88,25.76,6.27,31.79,1015.65,2057.58,2393.27,2551.44,2769.07,350.09,330.66,18.54,0000 0000 0000 0000 000000
2014-04-02 02:04:50,0.12,3.13,0.00,17.12,22.89,25.81,6.17,31.75,1015.65,2057.53,2393.09,2551.17,2768.99,350.61,330.80,18.54,0000 0000 0000 0000 000000
2014-04-02 02:05:50,0.09,3.13,0.00,17.12,22.89,25.71,6.07,31.75,1015.64,2057.55,2392.91,2551.07,2768.78,349.04,329.31,18.55,0000 0000 0000 0000 000000
2014-04-02 02:06:50,0.16,3.13,0.00,17.12,22.89,25.75,6.06,32.00,1015.64,2057.46,2392.60,2551.02,2768.31,349.20,329.46,18.56,0000 0000 0000 0000 000000
2014-04-02 02:07:51,0.11,3.13,0.00,17.12,22.89,25.79,6.14,31.88,1015.64,2057.43,2392.32,2550.97,2768.12,349.85,329.60,18.56,0000 0000 0000 0000 000000
2014-04-02 02:08:51,0.03,3.13,0.00,17.12,22.89,25.77,6.15,31.79,1015.64,2057.46,2392.11,2550.79,2768.03,349.98,330.32,18.57,0000 0000 0000 0000 000000
2014-04-02 02:09:51,0.20,3.13,0.00,17.14,22.90,25.81,6.22,31.92,1015.63,2057.51,2392.04,2550.35,2767.97,350.48,330.65,18.57,0000 0000 0000 0000 000000
2014-04-02 02:10:52,0.14,3.13,0.00,17.13,22.90,25.80,6.22,32.04,1015.60,2057.38,2391.90,2550.13,2767.61,350.17,330.35,18.58,0000 0000 0000 0000 000000
2014-04-02 02:11:52,0.07,3.13,0.00,17.14,22.91,25.79,6.15,31.79,1015.58,2057.30,2391.50,2550.04,2767.26,349.74,329.92,18.58,0000 0000 0000 0000 000000
2014-04-02 02:12:52,0.10,3.14,0.00,17.16,22.92,25.79,6.13,31.75,1015.44,2057.28,2391.19,2550.01,2767.09,349.53,329.66,18.59,0000 0000 0000 0000 000000
2014-04-02 02:13:52,0.06,3.14,0.00,17.16,22.92,25.79,6.20,32.13,1015.40,2057.17,2391.07,2549.79,2767.02,349.36,329.89,18.60,0000 0000 0000 0000 000000
2014-04-02 02:14:53,0.05,3.14,0.00,17.15,22.92,25.78,5.98,31.96,1015.42,2057.13,2390.83,2549.37,2766.71,349.79,330.31,18.60,0000 0000 0000 0000 000000
2014-04-02 02:15:53,0.20,3.14,0.00,17.17,22.92,25.79,6.05,31.88,1015.38,2057.15,2390.39,2549.15,2766.32,349.38,329.49,18.61,0000 0000 0000 0000 000000
2014-04-02 02:16:53,0.24,3.14,0.00,17.17,22.92,25.82,6.13,31.88,1015.27,2057.21,2390.14,2549.05,2766.11,350.57,330.57,18.61,0000 0000 0000 0000 000000
2014-04-02 02:17:53,0.21,3.14,0.00,17.18,22.93,25.81,6.01,31.88,1015.24,2057.22,2390.04,2549.00,2766.03,349.00,329.08,18.62,0000 0000 0000 0000 000000
2014-04-02 02:18:54,-0.01,3.14,0.00,17.18,22.94,25.81,6.13,31.92,1015.24,2057.15,2389.97,2548.84,2765.95,349.32,329.53,18.63,0000 0000 0000 0000 000000
2014-04-02 02:19:54,0.07,3.14,0.00,17.18,22.94,25.76,6.18,31.79,1015.20,2057.10,2389.80,2548.45,2765.64,350.52,330.49,18.63,0000 0000 0000 0000 000000
2014-04-02 02:20:54,0.19,3.14,0.00,17.18,22.94,25.77,6.22,32.00,1015.17,2057.06,2389.35,2548.20,2765.28,349.75,329.75,18.64,0000 0000 0000 0000 000000
2014-04-02 02:21:55,0.18,3.14,0.00,17.19,22.94,25.79,6.24,31.83,1015.17,2057.04,2389.12,2548.07,2765.10,350.63,330.43,18.64,0000 0000 0000 0000 000000
2014-04-02 02:22:55,0.08,3.14,0.00,17.20,22.95,25.84,6.12,31.58,1015.17,2057.04,2389.04,2548.01,2765.04,349.75,330.11,18.65,0000 0000 0000 0000 000000
2014-04-02 02:23:55,0.05,3.14,0.00,17.20,22.95,25.82,6.06,31.88,1015.20,2057.05,2388.61,2547.89,2764.79,348.74,328.79,18.66,0000 0000 0000 0000 000000
2014-04-02 02:24:55,0.21,3.14,0.00,17.20,22.96,25.84,6.21,31.71,1015.17,2057.04,2388.28,2547.58,2764.41,350.59,330.52,18.66,0000 0000 0000 0000 000000
2014-04-02 02:25:55,0.27,3.15,0.00,17.22,22.97,25.83,6.28,31.88,1015.15,2057.08,2388.11,2547.26,2764.15,350.20,330.14,18.67,0000 0000 0000 0000 000000
2014-04-02 02:26:56,0.17,3.15,0.00,17.22,22.97,25.81,6.19,31.75,1015.15,2057.05,2388.00,2547.10,2764.05,350.39,330.31,18.67,0000 0000 0000 0000 000000
2014-04-02 02:27:56,0.05,3.15,0.00,17.22,22.97,25.76,6.08,31.58,1015.15,2057.08,2387.93,2547.03,2764.00,349.56,329.50,18.68,0000 0000 0000 0000 000000
2014-04-02 02:28:56,0.08,3.15,0.00,17.23,22.97,25.80,6.19,32.00,1015.13,2057.06,2387.53,2546.99,2763.69,348.92,329.67,18.68,0000 0000 0000 0000 000000
2014-04-02 02:29:57,0.17,3.15,0.00,17.24,22.97,25.80,6.07,32.17,1015.08,2057.03,2387.20,2546.69,2763.28,348.42,328.43,18.69,0000 0000 0000 0000 000000
2014-04-02 02:30:57,0.23,3.15,0.00,17.24,22.99,25.77,6.12,32.17,1015.00,2057.01,2386.89,2546.28,2763.08,349.84,329.51,18.70,0000 0000 0000 0000 000000
2014-04-02 02:31:57,0.21,3.15,0.00,17.24,22.99,25.75,6.16,31.96,1014.90,2057.02,2386.68,2546.10,2762.97,350.83,330.59,18.70,0000 0000 0000 0000 000000
2014-04-02 02:32:57,0.13,3.15,0.00,17.24,22.99,25.79,6.30,32.38,1014.86,2057.02,2386.35,2546.02,2762.78,349.79,330.03,18.71,0000 0000 0000 0000 000000
2014-04-02 02:33:58,0.13,3.15,0.00,17.25,22.99,25.82,6.23,31.79,1014.86,2057.00,2386.14,2545.92,2762.32,350.05,329.81,18.71,0000 0000 0000 0000 000000
2014-04-02 02:34:58,0.14,3.15,0.00,17.25,23.00,25.85,6.25,31.96,1014.87,2057.00,2386.02,2545.60,2762.11,350.40,330.10,18.72,0000 0000 0000 0000 000000
2014-04-02 02:35:58,0.19,3.16,0.00,17.27,23.00,25.86,6.18,31.71,1014.83,2057.02,2385.76,2545.23,2762.02,350.39,330.34,18.73,0000 0000 0000 0000 000000